This site uses a module created by best online poker sites.

BSB police reports ending January 12, 2018

Print
"01/11/2018","00:09","218CR0000835","BUSINESS CHECK","BUSINESS CHECK","531 S MONTANA","",""
"01/11/2018","00:21","218CR0000836","UNWANTED PERSON","FAILURE TO DISPERSE","2000 DEWEY BLVD","ARREST(s) MADE",""
"01/11/2018","00:57","218CR0000837","WELFARE CHECK","WELFARE CHECK","FRONT AND HARRISON","",""
"01/11/2018","01:15","218CR0000838","SUSPICIOUS ACTIVITY","SUSPICIOUS ACTIVITY","3745 HARRISON AV","",""
"01/11/2018","01:20","218CR0000839","ALARM - BURGLARY","ALARM - BURGLARY","************","",""
"01/11/2018","01:30","218CR0000840","BUSINESS CHECK","BUSINESS CHECK","2711 HARRISON AVE","",""
"01/11/2018","01:37","218CR0000841","ATL","ATL","814 S COLORADO","",""
"01/11/2018","01:48","218CR0000842","SUSPICIOUS ACTIVITY","SUSPICIOUS ACTIVITY","GEORGE AND HARRISON","",""
"01/11/2018","02:12","218CR0000843","SUSPICIOUS ACTIVITY","SUSPICIOUS ACTIVITY","1900 BLK OREGON AVE","",""
"01/11/2018","02:31","218CR0000844","SUSPICIOUS ACTIVITY","SUSPICIOUS ACTIVITY","SILVERBOW BLVD AND CAROLINA","",""
"01/11/2018","07:04","218CR0000845","JUVENILE RUNAWAY","JUVENILE RUNAWAY","************","",""
"01/11/2018","08:04","218CR0000846","T/S","T/S @ HARRISON AND COBBAN","HARRISON AND COBBAN","",""
"01/11/2018","08:23","218CR0000847","CIVIL PAPER SERVICE","CIVIL PAPER SERVICE","3204 KENNEDY","",""
"01/11/2018","08:31","218CR0000848","CIVIL PAPER SERVICE","CIVIL PAPER SERVICE","1685 GRAND","",""
"01/11/2018","08:44","218CR0000849","CIVIL PAPER SERVICE","CIVIL PAPER SERVICE","701 W BROADWAY","",""
"01/11/2018","08:45","218CR0000850","DETENTION BUSINESS","DETENTION BUSINESS","************","",""
"01/11/2018","08:59","218CR0000851","SUICIDE ATTEMPT/THREAT","SUICIDE ATTEMPT/THREAT","************","",""
"01/11/2018","09:07","218CR0000852","UNWANTED PERSON","UNWANTED PERSON","************","",""
"01/11/2018","09:55","218CR0000853","DETENTION BUSINESS","DETENTION BUSINESS","************","",""
"01/11/2018","10:00","218CR0000854","DISTURBANCE","DISTURBANCE","524 W ALUMINUM","",""
"01/11/2018","10:01","218CR0000855","MEDICAL - EMERGENCY","MEDICAL - EMERGENCY","4015 S UTAH","",""
"01/11/2018","10:08","218CR0000856","MEDICAL - EMERGENCY","MEDICAL - EMERGENCY","2821 EDWARDS","",""
"01/11/2018","10:11","218CR0000857","DISTURBANCE","DISTURBANCE","2825 WALNUT","",""
"01/11/2018","10:51","218CR0000858","JUVENILE MISC","JUVENILE MISC","************","",""
"01/11/2018","10:55","218CR0000859","WELFARE CHECK","WELFARE CHECK","847 W BROADWAY APT B","",""
"01/11/2018","11:21","218CR0000860","ACCIDENT","ACCIDENT","1341 HARRISON/POORE ROTH","",""
"01/11/2018","11:47","218CR0000862","UNKNOWN PROBLEM","UNKNOWN PROBLEM","807 S COLORADO","",""
"01/11/2018","12:05","218CR0000863","THEFT","THEFT, SHOPLIFT","3901 HARRISON AVE","ARREST(s) MADE",""
"01/11/2018","12:11","218CR0000864","DISTURBANCE","DISTURBANCE","2825 WALNUT","",""
"01/11/2018","12:32","218CR0000865","ASSIST OTHER AGENCY","ASSIST OTHER AGENCY","MONTANA AND FRONT","",""
"01/11/2018","12:43","218CR0000866","MEDICAL - EMERGENCY","MEDICAL - EMERGENCY","225 N ALASKA","",""
"01/11/2018","13:08","218CR0000867","SEXUAL ASSAULT","SEXUAL ASSAULT","************","",""
"01/11/2018","13:20","218CR0000868","ALL OTHER","ALL OTHER","400 S CLARK ST","",""
"01/11/2018","13:29","218CR0000869","MEDICAL - EMERGENCY","MEDICAL - EMERGENCY","134 RAMPART DR","",""
"01/11/2018","13:31","218CR0000870","TRAFFIC HAZARD","TRAFFIC HAZARD","MT 2 MM 68","",""
"01/11/2018","13:45","218CR0000871","HIT AND RUN","HIT AND RUN","225 N ALASKA","",""
"01/11/2018","13:48","218CR0000872","MEDICAL - EMERGENCY","MEDICAL - EMERGENCY","3900 JUPITER LANE APT B108","",""
"01/11/2018","13:54","218CR0000874","FIRE- GAS ODOR","FIRE- GAS ODOR","630 1/2 W GRANITE","",""
"01/11/2018","13:54","218CR0000873","T/S","T/S @ ","","",""
"01/11/2018","14:32","218CR0000875","BURGLARY","THEFT FROM BUILDINGS","1730 LONGFELLOW","",""
"01/11/2018","14:36","218CR0000876","FIRE - OTHER","FIRE - OTHER","820 S DAKOTA","",""
"01/11/2018","14:40","218CR0000877","FRAUD","FRAUD","205 W GRNAITE #206","",""
"01/11/2018","14:52","218CR0000878","MEDICAL - EMERGENCY","MEDICAL - EMERGENCY","1019 W PORPHYRY","",""
"01/11/2018","15:01","218CR0000879","DETENTION BUSINESS","DETENTION BUSINESS","************","",""
"01/11/2018","15:22","218CR0000880","T/S","T/S @ SAMPSON AND KAW","SAMPSON AND KAW","",""
"01/11/2018","15:46","218CR0000881","ASSIST OTHER AGENCY","ASSIST OTHER AGENCY","I15 MM 144 SB","",""
"01/11/2018","15:49","218CR0000882","JUVENILE MISC","JUVENILE MISC","************","",""
"01/11/2018","15:52","218CR0000883","FIRE - OTHER","FIRE - OTHER","1016 GAYLORD","",""
"01/11/2018","15:54","218CR0000884","JUVENILE MISC","JUVENILE MISC","************","",""
"01/11/2018","15:57","218CR0000885","CIVIL PAPER SERVICE","CIVIL PAPER SERVICE","846 CALEDONIA","",""
"01/11/2018","16:12","218CR0000886","JUVENILE MISC","JUVENILE MISC","************","",""
"01/11/2018","16:16","218CR0000887","DISTURBANCE","DISTURBANCE","700 CASEY ST","",""
"01/11/2018","16:54","218CR0000888","DISTURBANCE-NOISE","DISTURBANCE-NOISE","2645 GOODWIN","",""
"01/11/2018","16:56","218CR0000889","MEDICAL - EMERGENCY","MEDICAL - EMERGENCY","2653 NETTIE","",""
"01/11/2018","17:03","218CR0000890","OPEN BUILDING","OPEN BUILDING","807 S COLORADO","",""
"01/11/2018","17:10","218CR0000891","ALL OTHER","ALL OTHER","110 N JEFFERSON","",""
"01/11/2018","17:42","218CR0000892","ALL OTHER","ALL OTHER","3536 GAYLORD","",""
"01/11/2018","18:07","218CR0000894","SUICIDE ATTEMPT/THREAT","SUICIDE ATTEMPT/THREAT","************","",""
"01/11/2018","18:19","218CR0000895","ALL OTHER","ALL OTHER","225 N ALASKA","",""
"01/11/2018","18:34","218CR0000896","T/S","T/S @ HOLMES AND ROWE RD","HOLMES AND ROWE RD","",""
"01/11/2018","19:03","218CR0000897","ALARM - BURGLARY","ALARM - BURGLARY","************","",""
"01/11/2018","19:28","218CR0000898","T/S","T/S @ HARRISON AND SAMPSON","HARRISON AND SAMPSON","",""
"01/11/2018","19:30","218CR0000899","DISTURBANCE","DISTURBANCE","2720 PINE ST","",""
"01/11/2018","19:32","218CR0000900","MEDICAL - EMERGENCY","MEDICAL - EMERGENCY","3701 ELIZABETH WARREN","",""
"01/11/2018","19:35","218CR0000901","CIVIL PAPER SERVICE","CIVIL PAPER SERVICE","706 SILVER BOW HOMES","",""
"01/11/2018","19:46","218CR0000902","WELFARE CHECK","WELFARE CHECK","2915 OTTAWA","",""
"01/11/2018","19:50","218CR0000903","DISTURBANCE","DISTURBANCE","501 S MONTANA ST","",""
"01/11/2018","20:19","218CR0000904","ASSIST OTHER AGENCY","ASSIST OTHER AGENCY","MONTANA AND PORPHYRY","",""
"01/11/2018","21:24","218CR0000905","MEDICAL - EMERGENCY","MEDICAL - EMERGENCY","1040 W PLATINUM","",""
"01/11/2018","21:30","218CR0000906","FRAUD","FRAUD","60 E BROADWAY /ACOMA","",""
"01/11/2018","22:23","218CR0000907","ACCIDENT-MHP","ACCIDENT-MHP","I15 MM 113 NB","",""
"01/11/2018","23:07","218CR0000908","ASSAULT","ASSAULT","************","",""
"01/11/2018","23:18","218CR0000909","UNWANTED PERSON","UNWANTED PERSON","************","",""
"01/12/2018","00:27","218CR0000910","BUSINESS CHECK","BUSINESS CHECK","531 S MONTANA","",""
"01/12/2018","00:32","218CR0000911","T/S","T/S","LOCUST AND HOWARD","",""
"01/12/2018","00:44","218CR0000912","SUSPICIOUS ACTIVITY","SUSPICIOUS ACTIVITY","5103 HARRISON AVE","",""
"01/12/2018","00:48","218CR0000913","BUSINESS CHECK","BUSINESS CHECK","2000 DEWEY BLVD","",""
"01/12/2018","00:51","218CR0000914","BUSINESS CHECK","BUSINESS CHECK","2711 HARRISON AVE","",""
"01/12/2018","00:57","218CR0000915","T/S","T/S","GOODWIN AND PORTER","",""
"01/12/2018","01:14","218CR0000916","SUSPICIOUS ACTIVITY","SUSPICIOUS ACTIVITY","1100 BLK N EXCELSIOR","",""
"01/12/2018","02:16","218CR0000917","T/S","T/S @ 1370 HARRISON AVE","1370 HARRISON AVE","",""
"01/12/2018","02:19","218CR0000918","T/S","T/S","HOLMES AND WYNNE","",""
"01/12/2018","02:21","218CR0000919","ASSIST OTHER AGENCY","ASSIST OTHER AGENCY","800 BLK S MAIN","",""
"01/12/2018","04:33","218CR0000920","ACCIDENT- INJURY(MHP)","ACCIDENT- INJURY(MHP)","I15 MM 121 NB","",""
"01/12/2018","04:51","218CR0000921","ALARM - MEDICAL","ALARM - MEDICAL","************","",""
"01/12/2018","05:12","218CR0000922","T/S","T/S @ MONTANA AND SECOND","MONTANA AND SECOND","",""
"01/12/2018","05:14","218CR0000923","SUSPICIOUS ACTIVITY","MOTOR VEHICLE THEFT","1000 BLK W WOOLMAN ST","",""
"01/12/2018","05:27","218CR0000924","MEDICAL - EMERGENCY","MEDICAL - EMERGENCY","1828 ADAMS AVE","",""
"01/12/2018","05:49","218CR0000925","ASSIST OTHER AGENCY","ASSIST OTHER AGENCY","I15 MM 138 NB","",""
"01/12/2018","06:35","218CR0000927","TRAFFIC HAZARD","TRAFFIC HAZARD","I 15 MM 127 S BND","",""
"01/12/2018","07:38","218CR0000929","DISTURBANCE","DISTURBANCE","62 W BROADWAY","",""
 
Friday the 20th. Affiliate Marketing.
Copyright 2012

©